Location: Janeiro
(34.9957°N, 76.7652°W)
Time: 19:52:04
(UTC+00:00)

Cosmos 2297 - Pass Details

Date: 14 December 2019
Orbit: 836 x 858 km, 71.0° (Epoch: 18 January)

Event Time Altitude Azimuth Distance (km) Brightness Sun altitude
Rises 22:22:57 0° 345° (NNW) 3,418 6.8 -5.7°
Reaches altitude 10° 22:25:31 10° 351° (N) 2,476 6.0 -6.2°
Maximum altitude 22:30:58 46° 65° (ENE) 1,115 4.0 -7.2°
Drops below altitude 10° 22:36:22 10° 138° (SE) 2,449 5.9 -8.2°
Sets 22:38:53 0° 144° (SE) 3,377 6.7 -8.7°
